GW6829 Weather Reports


Display with metric or nautical units.
time (UTC)temp
F
wind
direction
speed
MPH
gust
MPH
rain 1hr
in
rain 24hr
in
rain mn
in
humidity
%
barometer
mb
20260422141029 57 185 8.0 13.0 0.00 0.00 0.00 90 1019.8
20260422140528 57 180 7.0 12.0 0.00 0.00 0.00 91 1019.9
20260422132529 56 204 6.0 10.0 0.00 0.00 0.00 92 1019.8
20260422132028 56 200 6.0 11.0 0.00 0.00 0.00 92 1019.9
20260422131529 56 188 7.0 10.0 0.00 0.00 0.00 92 1019.8
20260422131028 56 208 7.0 10.0 0.00 0.00 0.00 92 1019.8
20260422130529 56 210 6.0 10.0 0.00 0.00 0.00 92 1019.9
20260422125529 56 222 4.0 9.0 0.00 0.00 0.00 92 1019.8
20260422125029 55 195 6.0 11.0 0.00 0.00 0.00 92 1019.7
20260422124530 55 193 8.0 11.0 0.00 0.00 0.00 92 1019.7
20260422124031 55 204 8.0 11.0 0.00 0.00 0.00 92 1019.7
20260422123529 55 188 8.0 14.0 0.00 0.00 0.00 92 1019.7
20260422123029 55 200 9.0 15.0 0.00 0.00 0.00 92 1019.5
20260422122530 55 185 11.0 14.0 0.00 0.00 0.00 92 1019.6
20260422122029 55 190 9.0 12.0 0.00 0.00 0.00 92 1019.6
20260422121528 55 211 7.0 15.0 0.00 0.00 0.00 92 1019.6
20260422121028 55 194 10.0 14.0 0.00 0.00 0.00 92 1019.4
20260422120528 55 185 11.0 13.0 0.00 0.00 0.00 93 1019.5
20260422111529 55 185 8.0 12.0 0.00 0.00 0.00 92 1019.2
20260422111029 55 203 8.0 13.0 0.00 0.00 0.00 92 1019.1
20260422110528 55 220 9.0 13.0 0.00 0.00 0.00 92 1019.2
20260422105029 55 197 9.0 12.0 0.00 0.00 0.00 92 1019.0
20260422104529 55 213 7.0 12.0 0.00 0.00 0.00 92 1019.2
20260422104029 55 206 9.0 14.0 0.00 0.00 0.00 91 1019.1
20260422103529 55 207 7.0 13.0 0.00 0.00 0.00 91 1019.2
20260422103029 55 194 7.0 13.0 0.00 0.00 0.00 91 1019.1
20260422102529 55 215 9.0 14.0 0.00 0.00 0.00 91 1019.1
20260422102030 55 192 9.0 15.0 0.00 0.00 0.00 90 1019.1
20260422101528 55 205 11.0 15.0 0.00 0.00 0.00 90 1019.2
20260422101028 55 217 6.0 14.0 0.00 0.00 0.00 90 1019.2
20260422100529 55 214 6.0 13.0 0.00 0.00 0.00 90 1019.2
20260422100029 55 206 7.0 12.0 0.00 0.00 0.00 90 1019.2
20260422095528 55 194 6.0 11.0 0.00 0.00 0.00 90 1019.3
20260422095029 55 212 8.0 16.0 0.00 0.00 0.00 90 1019.1
20260422094531 55 189 9.0 16.0 0.00 0.00 0.00 90 1019.2
20260422094029 55 220 5.0 14.0 0.00 0.00 0.00 90 1019.2
20260422093529 55 203 10.0 14.0 0.00 0.00 0.00 90 1019.1
20260422093028 55 202 7.0 12.0 0.00 0.00 0.00 90 1019.2
20260422092529 55 211 8.0 12.0 0.00 0.00 0.00 90 1019.2
20260422092029 55 189 9.0 12.0 0.00 0.00 0.00 89 1019.2
20260422091531 55 220 6.0 11.0 0.00 0.00 0.00 89 1019.2
20260422091028 55 210 7.0 12.0 0.00 0.00 0.00 89 1019.2
20260422090528 55 219 8.0 14.0 0.00 0.00 0.00 89 1019.2
20260422090029 55 191 9.0 14.0 0.00 0.00 0.00 89 1019.1
20260422085528 55 196 11.0 14.0 0.00 0.00 0.00 89 1019.1
20260422085028 55 210 8.0 12.0 0.00 0.00 0.00 89 1019.2
20260422084529 55 210 7.0 11.0 0.00 0.00 0.00 88 1019.3
20260422084031 55 202 9.0 12.0 0.00 0.00 0.00 88 1019.3
20260422083528 55 216 7.0 13.0 0.00 0.00 0.00 88 1019.1
20260422083028 55 208 10.0 12.0 0.00 0.00 0.00 88 1019.1
20260422082529 54 214 7.0 15.0 0.00 0.00 0.00 88 1019.2
20260422082029 54 194 8.0 13.0 0.00 0.00 0.00 87 1019.2
20260422081529 54 228 7.0 11.0 0.00 0.00 0.00 87 1019.2
20260422081028 54 213 9.0 14.0 0.00 0.00 0.00 87 1019.3
20260422080529 54 208 9.0 13.0 0.00 0.00 0.00 87 1019.2
20260422080028 54 212 7.0 16.0 0.00 0.00 0.00 86 1019.2
20260422075529 54 193 11.0 16.0 0.00 0.00 0.00 86 1019.2
20260422075029 54 207 10.0 13.0 0.00 0.00 0.00 85 1019.2
20260422074529 54 208 8.0 14.0 0.00 0.00 0.00 85 1019.2
20260422074028 54 202 9.0 16.0 0.00 0.00 0.00 84 1019.2
20260422073528 54 211 12.0 15.0 0.00 0.00 0.00 84 1019.1
20260422073028 54 229 7.0 9.0 0.00 0.00 0.00 83 1019.3
20260422072528 54 214 6.0 13.0 0.00 0.00 0.00 82 1019.4
20260422072031 54 196 7.0 12.0 0.00 0.00 0.00 82 1019.5
20260422071530 54 209 7.0 11.0 0.00 0.00 0.00 82 1019.5
20260422071029 54 201 7.0 13.0 0.00 0.00 0.00 82 1019.6
20260422070529 54 194 8.0 11.0 0.00 0.00 0.00 81 1019.5
20260422070030 54 186 8.0 10.0 0.00 0.00 0.00 81 1019.6
20260422065528 54 203 7.0 10.0 0.00 0.00 0.00 80 1019.7
20260422065028 54 185 6.0 12.0 0.00 0.00 0.00 80 1019.7
20260422064528 54 195 8.0 12.0 0.00 0.00 0.00 80 1019.7
20260422064029 55 186 8.0 12.0 0.00 0.00 0.00 79 1019.8
20260422063529 55 190 7.0 12.0 0.00 0.00 0.00 78 1019.7
20260422063029 55 213 8.0 13.0 0.00 0.00 0.00 78 1019.8
20260422062529 55 204 7.0 11.0 0.00 0.00 0.00 78 1019.7
20260422062028 55 222 6.0 12.0 0.00 0.00 0.00 78 1019.9
20260422061528 55 204 7.0 11.0 0.00 0.00 0.00 77 1019.8
20260422061029 55 191 5.0 9.0 0.00 0.00 0.00 77 1020.0
20260422060535 55 192 7.0 9.0 0.00 0.00 0.00 77 1019.9
20260422060028 55 195 5.0 7.0 0.00 0.00 0.00 77 1020.0
20260422055528 55 176 4.0 6.0 0.00 0.00 0.00 76 1020.0
20260422055028 55 199 4.0 8.0 0.00 0.00 0.00 76 1019.9
20260422054528 56 187 5.0 9.0 0.00 0.00 0.00 75 1019.9
20260422054029 56 175 6.0 9.0 0.00 0.00 0.00 75 1019.9
20260422053529 56 199 6.0 10.0 0.00 0.00 0.00 74 1019.8
20260422053028 56 191 8.0 13.0 0.00 0.00 0.00 74 1019.8
20260422052531 56 203 8.0 11.0 0.00 0.00 0.00 73 1019.8
20260422052030 57 194 6.0 13.0 0.00 0.00 0.00 73 1019.9
20260422051529 57 202 9.0 13.0 0.00 0.00 0.00 73 1019.8
20260422051029 57 196 9.0 15.0 0.00 0.00 0.00 72 1019.8
20260422050529 57 194 9.0 14.0 0.00 0.00 0.00 72 1019.7
20260422050029 57 198 8.0 13.0 0.00 0.00 0.00 72 1019.8
20260422045528 57 191 8.0 13.0 0.00 0.00 0.00 72 1019.9
20260422045028 58 195 10.0 15.0 0.00 0.00 0.00 71 1019.8
20260422044528 58 192 8.0 14.0 0.00 0.00 0.00 72 1020.0
20260422044028 58 185 10.0 14.0 0.00 0.00 0.00 71 1020.1
20260422043531 58 177 8.0 14.0 0.00 0.00 0.00 69 1020.1
20260422043029 58 194 10.0 14.0 0.00 0.00 0.00 68 1020.1
20260422042529 58 199 6.0 14.0 0.00 0.00 0.00 68 1020.2
20260422042028 58 209 9.0 14.0 0.00 0.00 0.00 68 1020.1
20260422041528 59 218 6.0 10.0 0.00 0.00 0.00 68 1020.3
20260422041028 59 198 7.0 12.0 0.00 0.00 0.00 67 1020.3
20260422040529 59 230 6.0 10.0 0.00 0.00 0.00 67 1020.3
20260422040033 59 200 6.0 10.0 0.00 0.00 0.00 67 1020.3
20260422035528 59 207 5.0 9.0 0.00 0.00 0.00 67 1020.4
20260422035028 59 191 6.0 10.0 0.00 0.00 0.00 67 1020.3
20260422034528 60 208 6.0 11.0 0.00 0.00 0.00 66 1020.4
20260422034029 60 198 8.0 13.0 0.00 0.00 0.00 66 1020.3
20260422033528 60 202 6.0 12.0 0.00 0.00 0.00 66 1020.4
20260422033028 60 208 8.0 12.0 0.00 0.00 0.00 66 1020.4
20260422032529 60 216 8.0 11.0 0.00 0.00 0.00 66 1020.4
20260422032031 60 215 8.0 11.0 0.00 0.00 0.00 65 1020.5
20260422031528 60 209 8.0 10.0 0.00 0.00 0.00 65 1020.5
20260422031030 61 219 6.0 10.0 0.00 0.00 0.00 65 1020.5
20260422030530 61 215 8.0 11.0 0.00 0.00 0.00 65 1020.5
20260422030032 61 221 6.0 10.0 0.00 0.00 0.00 65 1020.6
20260422025530 61 224 6.0 9.0 0.00 0.00 0.00 66 1020.5
20260422025028 61 222 6.0 9.0 0.00 0.00 0.00 65 1020.5
20260422024528 61 227 4.0 7.0 0.00 0.00 0.00 66 1020.6
20260422024030 61 218 4.0 7.0 0.00 0.00 0.00 65 1020.5
20260422023528 62 213 5.0 8.0 0.00 0.00 0.00 65 1020.5
20260422023032 62 208 5.0 8.0 0.00 0.00 0.00 64 1020.5
20260422022529 62 217 4.0 7.0 0.00 0.00 0.00 64 1020.6
20260422022029 62 210 5.0 7.0 0.00 0.00 0.00 64 1020.6
20260422021529 62 214 4.0 7.0 0.00 0.00 0.00 64 1020.6
20260422021030 62 219 4.0 7.0 0.00 0.00 0.00 64 1020.6
20260422020528 62 212 4.0 6.0 0.00 0.00 0.00 64 1020.6
20260422020029 62 217 2.0 5.0 0.00 0.00 0.00 63 1020.5
20260422015529 63 225 3.0 6.0 0.00 0.00 0.00 62 1020.5
20260422015029 63 223 3.0 7.0 0.00 0.00 0.00 62 1020.4
20260422014528 63 218 5.0 9.0 0.00 0.00 0.00 61 1020.3
20260422014028 64 210 6.0 11.0 0.00 0.00 0.00 61 1020.2
20260422013529 64 206 6.0 10.0 0.00 0.00 0.00 60 1020.2
20260422013028 64 214 6.0 12.0 0.00 0.00 0.00 60 1020.2
20260422012528 64 218 9.0 12.0 0.00 0.00 0.00 59 1020.1
20260422012028 64 219 6.0 10.0 0.00 0.00 0.00 59 1020.1
20260422011529 64 201 7.0 10.0 0.00 0.00 0.00 59 1020.1
20260422011032 65 212 8.0 11.0 0.00 0.00 0.00 58 1020.1
20260422010529 65 205 7.0 12.0 0.00 0.00 0.00 58 1020.2
20260422010029 65 219 9.0 13.0 0.00 0.00 0.00 58 1020.1
20260422005528 65 220 6.0 11.0 0.00 0.00 0.00 59 1020.2
20260422005028 66 227 6.0 14.0 0.00 0.00 0.00 58 1020.2
20260422004529 66 225 6.0 13.0 0.00 0.00 0.00 59 1020.2
20260422004029 67 193 10.0 14.0 0.00 0.00 0.00 58 1020.0
20260422003528 67 216 11.0 19.0 0.00 0.00 0.00 58 1020.1
20260422003028 67 228 9.0 15.0 0.00 0.00 0.00 59 1020.0
20260422002529 68 213 8.0 14.0 0.00 0.00 0.00 60 1020.0
20260422002029 68 206 10.0 18.0 0.00 0.00 0.00 60 1020.0
20260422001528 68 213 14.0 21.0 0.00 0.00 0.00 60 1019.7
20260422001030 68 216 13.0 21.0 0.00 0.00 0.00 59 1019.8
20260422000534 69 219 12.0 17.0 0.00 0.00 0.00 59 1019.8
20260422000028 69 197 12.0 17.0 0.00 0.00 0.00 59 1019.6
20260421235528 69 226 11.0 23.0 0.00 0.00 0.00 59 1019.8
20260421235029 70 202 9.0 15.0 0.00 0.00 0.00 59 1019.7
20260421234528 70 194 10.0 15.0 0.00 0.00 0.00 58 1019.6
20260421234028 70 191 9.0 14.0 0.00 0.00 0.00 58 1019.6
20260421233529 69 206 11.0 15.0 0.00 0.00 0.00 58 1019.5
20260421233028 69 207 8.0 17.0 0.00 0.00 0.00 58 1019.6
20260421232528 69 212 10.0 17.0 0.00 0.00 0.00 59 1019.6
20260421232028 70 222 12.0 17.0 0.00 0.00 0.00 58 1019.6
20260421231528 70 222 10.0 18.0 0.00 0.00 0.00 57 1019.6
20260421231028 70 225 7.0 18.0 0.00 0.00 0.00 58 1019.6
20260421230529 70 217 10.0 20.0 0.00 0.00 0.00 57 1019.5
20260421230028 71 213 12.0 16.0 0.00 0.00 0.00 57 1019.5
20260421225528 71 217 9.0 15.0 0.00 0.00 0.00 57 1019.6
20260421225029 71 197 10.0 14.0 0.00 0.00 0.00 57 1019.6
20260421224528 70 159 6.0 15.0 0.00 0.00 0.00 57 1019.7
20260421224028 70 182 6.0 18.0 0.00 0.00 0.00 58 1019.7
20260421223528 69 192 12.0 18.0 0.00 0.00 0.00 58 1019.7
20260421223031 70 208 10.0 19.0 0.00 0.00 0.00 58 1019.7
20260421222528 70 187 14.0 18.0 0.00 0.00 0.00 58 1019.5
20260421222028 70 194 13.0 17.0 0.00 0.00 0.00 58 1019.6
20260421221528 71 212 11.0 21.0 0.00 0.00 0.00 57 1019.6
20260421221029 71 203 14.0 21.0 0.00 0.00 0.00 57 1019.6
20260421220528 71 205 15.0 24.0 0.00 0.00 0.00 56 1019.6
20260421220028 71 197 12.0 18.0 0.00 0.00 0.00 55 1019.7
20260421215528 71 236 10.0 22.0 0.00 0.00 0.00 54 1019.6
20260421215029 72 217 13.0 20.0 0.00 0.00 0.00 54 1019.6
20260421214529 72 200 15.0 20.0 0.00 0.00 0.00 53 1019.4
20260421214028 72 203 12.0 16.0 0.00 0.00 0.00 53 1019.5
20260421213528 72 215 10.0 15.0 0.00 0.00 0.00 53 1019.7
20260421213029 72 199 11.0 15.0 0.00 0.00 0.00 52 1019.5
20260421212529 72 188 10.0 20.0 0.00 0.00 0.00 51 1019.6
20260421212028 72 232 9.0 21.0 0.00 0.00 0.00 52 1019.5
20260421211529 72 232 11.0 20.0 0.00 0.00 0.00 51 1019.6
20260421211029 72 204 12.0 20.0 0.00 0.00 0.00 50 1019.2
20260421210528 73 209 11.0 15.0 0.00 0.00 0.00 50 1019.7
20260421210029 73 207 10.0 16.0 0.00 0.00 0.00 50 1019.6
20260421205529 72 201 9.0 25.0 0.00 0.00 0.00 49 1019.7
20260421205028 72 188 14.0 19.0 0.00 0.00 0.00 48 1019.7
20260421204528 73 202 9.0 23.0 0.00 0.00 0.00 47 1019.8
20260421204029 73 210 16.0 20.0 0.00 0.00 0.00 45 1019.8
20260421203528 73 188 4.0 15.0 0.00 0.00 0.00 45 1019.9
20260421203028 73 207 12.0 17.0 0.00 0.00 0.00 44 1019.9
20260421202529 72 204 7.0 19.0 0.00 0.00 0.00 44 1020.0
20260421202029 73 205 12.0 18.0 0.00 0.00 0.00 43 1020.0
20260421201528 73 173 8.0 15.0 0.00 0.00 0.00 42 1020.0
20260421201028 72 192 8.0 19.0 0.00 0.00 0.00 43 1020.3
20260421200530 72 211 14.0 20.0 0.00 0.00 0.00 43 1020.3
20260421200029 72 216 14.0 21.0 0.00 0.00 0.00 43 1020.4
20260421195530 72 182 12.0 21.0 0.00 0.00 0.00 43 1020.4
20260421195029 72 190 12.0 20.0 0.00 0.00 0.00 43 1020.2
20260421194529 72 199 16.0 20.0 0.00 0.00 0.00 44 1020.3
20260421194029 72 213 15.0 21.0 0.00 0.00 0.00 42 1020.2
20260421193529 72 214 11.0 23.0 0.00 0.00 0.00 42 1020.5
20260421193028 72 198 17.0 23.0 0.00 0.00 0.00 42 1020.4
20260421192528 72 197 13.0 21.0 0.00 0.00 0.00 43 1020.6
20260421192028 73 214 8.0 14.0 0.00 0.00 0.00 43 1020.4
20260421191528 72 176 7.0 16.0 0.00 0.00 0.00 44 1020.6
20260421191028 71 203 11.0 17.0 0.00 0.00 0.00 45 1020.5
20260421190529 71 198 12.0 19.0 0.00 0.00 0.00 45 1020.6
20260421190028 71 211 15.0 24.0 0.00 0.00 0.00 44 1020.3
20260421185529 71 202 15.0 19.0 0.00 0.00 0.00 45 1020.2
20260421185028 71 190 6.0 22.0 0.00 0.00 0.00 45 1020.8
20260421184528 71 198 12.0 19.0 0.00 0.00 0.00 45 1020.6
20260421184028 71 215 13.0 20.0 0.00 0.00 0.00 44 1020.7
20260421183529 71 160 8.0 17.0 0.00 0.00 0.00 44 1020.7
20260421183028 71 213 8.0 17.0 0.00 0.00 0.00 44 1020.8
20260421182528 71 225 8.0 14.0 0.00 0.00 0.00 45 1020.8
20260421182029 71 198 11.0 14.0 0.00 0.00 0.00 43 1021.3
20260421181528 70 216 4.0 17.0 0.00 0.00 0.00 43 1021.4
20260421181029 71 193 13.0 17.0 0.00 0.00 0.00 43 1021.4
20260421180528 71 185 11.0 17.0 0.00 0.00 0.00 43 1021.4
20260421180029 71 194 5.0 13.0 0.00 0.00 0.00 43 1021.5
20260421175528 70 185 3.0 15.0 0.00 0.00 0.00 43 1021.7
20260421175028 70 192 7.0 15.0 0.00 0.00 0.00 43 1021.6
20260421174528 69 176 9.0 21.0 0.00 0.00 0.00 42 1021.7
20260421174028 69 213 15.0 21.0 0.00 0.00 0.00 44 1021.6
20260421173529 69 202 11.0 17.0 0.00 0.00 0.00 44 1021.5
20260421173028 69 212 12.0 17.0 0.00 0.00 0.00 44 1021.6
20260421172529 69 212 11.0 23.0 0.00 0.00 0.00 43 1021.6
20260421172029 68 193 13.0 24.0 0.00 0.00 0.00 43 1021.7
20260421171529 68 203 15.0 20.0 0.00 0.00 0.00 43 1021.4
20260421171030 68 188 14.0 22.0 0.00 0.00 0.00 43 1021.5
20260421170528 68 184 9.0 20.0 0.00 0.00 0.00 44 1021.7
20260421170028 68 186 11.0 17.0 0.00 0.00 0.00 44 1021.6
20260421165529 68 187 9.0 16.0 0.00 0.00 0.00 45 1021.8
20260421165028 67 155 6.0 17.0 0.00 0.00 0.00 45 1021.9
20260421164529 67 197 5.0 17.0 0.00 0.00 0.00 46 1021.9
20260421164029 67 191 10.0 17.0 0.00 0.00 0.00 46 1021.6
20260421163528 66 204 9.0 14.0 0.00 0.00 0.00 48 1021.9
20260421163029 66 196 10.0 21.0 0.00 0.00 0.00 47 1022.1
20260421162528 66 214 12.0 20.0 0.00 0.00 0.00 46 1022.0
20260421162028 66 190 9.0 18.0 0.00 0.00 0.00 46 1021.8
20260421161530 66 194 12.0 15.0 0.00 0.00 0.00 46 1022.0
20260421161031 66 186 11.0 16.0 0.00 0.00 0.00 46 1021.9
20260421160528 66 204 12.0 15.0 0.00 0.00 0.00 46 1021.8
20260421160028 66 207 9.0 19.0 0.00 0.00 0.00 46 1022.0
20260421155528 66 196 13.0 19.0 0.00 0.00 0.00 45 1021.9
20260421155029 65 214 11.0 21.0 0.00 0.00 0.00 46 1021.9
20260421154528 65 210 15.0 20.0 0.00 0.00 0.00 46 1021.7
20260421154028 65 193 14.0 21.0 0.00 0.00 0.00 45 1021.7
20260421153529 65 196 9.0 15.0 0.00 0.00 0.00 48 1021.8
20260421153029 64 207 11.0 23.0 0.00 0.00 0.00 50 1021.8
20260421152528 64 238 9.0 21.0 0.00 0.00 0.00 49 1021.5
20260421152028 64 196 14.0 21.0 0.00 0.00 0.00 50 1021.7
20260421151529 64 203 10.0 20.0 0.00 0.00 0.00 50 1021.8
20260421151029 64 205 16.0 22.0 0.00 0.00 0.00 50 1021.6
20260421150530 64 222 11.0 28.0 0.00 0.00 0.00 50 1021.7
20260421150029 64 209 21.0 28.0 0.00 0.00 0.00 51 1021.4
20260421145529 63 208 13.0 19.0 0.00 0.00 0.00 52 1021.3
20260421145030 63 235 9.0 14.0 0.00 0.00 0.00 52 1021.4
20260421144528 63 193 10.0 13.0 0.00 0.00 0.00 54 1021.5
20260421144029 62 199 7.0 15.0 0.00 0.00 0.00 56 1021.5
20260421143529 62 190 10.0 15.0 0.00 0.00 0.00 56 1021.5
20260421143028 61 185 11.0 15.0 0.00 0.00 0.00 57 1021.5
20260421142529 60 220 4.0 11.0 0.00 0.00 0.00 58 1021.7
20260421142029 60 172 8.0 13.0 0.00 0.00 0.00 58 1021.7